• In Italy
  • List of Countries
  • For 7 days
  • Water Temperature
  • Satellite Maps
  • Weather Map
  • Weather Widgets
  • user-avatar
    Login

    Hourly Weather Naftalan

    Today, 25 May, Friday

    Time Temperature Precipitation Wind Pressure Humidity
    00:00 +24°C° 0 mm 1 mps 760 mmHg 43%
    01:00 +23°C° 0 mm 1 mps 759 mmHg 44%
    02:00 +23°C° 0 mm 1 mps 759 mmHg 45%
    03:00 +22°C° 0 mm 1 mps 759 mmHg 46%
    04:00 +23°C° 0 mm 1 mps 759 mmHg 44%
    05:00 +24°C° 0 mm 1 mps 759 mmHg 43%
    06:00 +23°C° 0 mm 0 mps 759 mmHg 41%
    07:00 +27°C° 0 mm 1 mps 759 mmHg 37%
    08:00 +29°C° 0 mm 1 mps 759 mmHg 32%
    09:00 +32°C° 0 mm 1 mps 759 mmHg 25%
    10:00 +33°C° 0 mm 1 mps 758 mmHg 24%
    11:00 +35°C° 0 mm 2 mps 758 mmHg 22%
    12:00 +36°C° 0 mm 2 mps 758 mmHg 21%
    13:00 +36°C° 0 mm 3 mps 758 mmHg 21%
    14:00 +36°C° 0 mm 4 mps 757 mmHg 21%
    15:00 +36°C° 0 mm 4 mps 757 mmHg 22%
    16:00 +34°C° 0.1 mm 4 mps 757 mmHg 25%
    17:00 +33°C° 0.1 mm 4 mps 757 mmHg 28%
    18:00 +30°C° 0.1 mm 4 mps 757 mmHg 31%
    19:00 +29°C° 0 mm 3 mps 757 mmHg 35%
    20:00 +27°C° 0 mm 3 mps 757 mmHg 38%
    21:00 +26°C° 0 mm 3 mps 758 mmHg 42%
    22:00 +25°C° 0 mm 3 mps 758 mmHg 44%
    23:00 +25°C° 0 mm 3 mps 758 mmHg 45%

    Tomorrow, 26 May, Saturday

    Time Temperature Precipitation Wind Pressure Humidity
    00:00 +25°C° 0 mm 3 mps 758 mmHg 46%
    01:00 +25°C° 0 mm 3 mps 757 mmHg 47%
    02:00 +25°C° 0 mm 3 mps 757 mmHg 48%
    03:00 +24°C° 0 mm 2 mps 757 mmHg 49%
    04:00 +25°C° 0 mm 3 mps 757 mmHg 48%
    05:00 +26°C° 0 mm 3 mps 758 mmHg 46%
    06:00 +26°C° 0 mm 3 mps 758 mmHg 45%
    07:00 +28°C° 0 mm 3 mps 758 mmHg 39%
    08:00 +30°C° 0 mm 3 mps 758 mmHg 34%
    09:00 +33°C° 0 mm 3 mps 758 mmHg 28%
    10:00 +34°C° 0 mm 3 mps 758 mmHg 27%
    11:00 +35°C° 0 mm 3 mps 758 mmHg 25%
    12:00 +36°C° 0 mm 4 mps 758 mmHg 24%
    13:00 +36°C° 0 mm 4 mps 758 mmHg 25%
    14:00 +36°C° 0 mm 4 mps 758 mmHg 27%
    15:00 +36°C° 0 mm 5 mps 758 mmHg 29%
    16:00 +34°C° 0.2 mm 5 mps 758 mmHg 36%
    17:00 +33°C° 0.2 mm 5 mps 759 mmHg 43%
    18:00 +30°C° 0.2 mm 4 mps 759 mmHg 49%
    19:00 +29°C° 0 mm 5 mps 760 mmHg 53%
    20:00 +27°C° 0 mm 6 mps 760 mmHg 58%
    21:00 +26°C° 0 mm 6 mps 761 mmHg 62%
    22:00 +26°C° 0.1 mm 7 mps 762 mmHg 63%
    23:00 +24°C° 0.1 mm 8 mps 762 mmHg 64%

    Day after tomorrow, 27 May, Sunday

    Time Temperature Precipitation Wind Pressure Humidity
    00:00 +24°C° 0.1 mm 9 mps 763 mmHg 65%
    01:00 +23°C° 0.1 mm 10 mps 764 mmHg 64%
    02:00 +23°C° 0.1 mm 10 mps 764 mmHg 64%
    03:00 +22°C° 0.1 mm 11 mps 765 mmHg 63%
    04:00 +22°C° 0 mm 11 mps 765 mmHg 59%
    05:00 +22°C° 0 mm 11 mps 766 mmHg 56%
    06:00 +22°C° 0 mm 11 mps 767 mmHg 52%
    07:00 +22°C° 0 mm 10 mps 767 mmHg 53%
    08:00 +22°C° 0 mm 10 mps 768 mmHg 53%
    09:00 +22°C° 0 mm 9 mps 769 mmHg 54%
    10:00 +22°C° 0 mm 9 mps 769 mmHg 54%
    11:00 +22°C° 0 mm 9 mps 770 mmHg 55%
    12:00 +22°C° 0 mm 8 mps 770 mmHg 56%
    13:00 +23°C° 0 mm 8 mps 770 mmHg 54%
    14:00 +23°C° 0 mm 7 mps 770 mmHg 52%
    15:00 +23°C° 0 mm 7 mps 770 mmHg 51%
    16:00 +22°C° 0 mm 6 mps 770 mmHg 51%
    17:00 +22°C° 0 mm 6 mps 770 mmHg 52%
    18:00 +21°C° 0 mm 5 mps 771 mmHg 52%
    19:00 +20°C° 0 mm 4 mps 771 mmHg 54%
    20:00 +19°C° 0 mm 3 mps 771 mmHg 56%
    21:00 +19°C° 0 mm 2 mps 771 mmHg 59%
    22:00 +18°C° 0 mm 2 mps 771 mmHg 60%
    23:00 +18°C° 0 mm 2 mps 770 mmHg 61%

    28 May, Monday

    Time Temperature Precipitation Wind Pressure Humidity
    00:00 +18°C° 0 mm 2 mps 770 mmHg 62%
    01:00 +17°C° 0 mm 2 mps 770 mmHg 63%
    02:00 +18°C° 0 mm 1 mps 769 mmHg 64%
    03:00 +18°C° 0 mm 1 mps 769 mmHg 66%
    04:00 +18°C° 0 mm 1 mps 769 mmHg 63%
    05:00 +19°C° 0 mm 1 mps 769 mmHg 59%
    06:00 +18°C° 0 mm 0 mps 768 mmHg 56%
    07:00 +22°C° 0 mm 1 mps 768 mmHg 54%
    08:00 +23°C° 0 mm 1 mps 768 mmHg 51%
    09:00 +24°C° 0 mm 1 mps 768 mmHg 48%
    10:00 +26°C° 0 mm 2 mps 767 mmHg 45%
    11:00 +27°C° 0 mm 2 mps 766 mmHg 43%
    12:00 +28°C° 0 mm 3 mps 765 mmHg 41%
    13:00 +29°C° 0 mm 3 mps 765 mmHg 42%
    14:00 +29°C° 0 mm 4 mps 764 mmHg 43%
    15:00 +29°C° 0 mm 5 mps 764 mmHg 44%
    16:00 +28°C° 0 mm 5 mps 764 mmHg 49%
    17:00 +27°C° 0 mm 5 mps 763 mmHg 54%
    18:00 +25°C° 0 mm 5 mps 763 mmHg 58%
    19:00 +23°C° 0 mm 4 mps 764 mmHg 61%
    20:00 +22°C° 0 mm 4 mps 764 mmHg 64%
    21:00 +21°C° 0 mm 3 mps 764 mmHg 66%
    22:00 +21°C° 0 mm 2 mps 764 mmHg 69%
    23:00 +21°C° 0 mm 2 mps 764 mmHg 71%

    29 May, Tuesday

    Time Temperature Precipitation Wind Pressure Humidity
    00:00 +21°C° 0 mm 1 mps 764 mmHg 73%
    01:00 +21°C° 0 mm 1 mps 764 mmHg 73%
    02:00 +21°C° 0 mm 1 mps 764 mmHg 74%
    03:00 +20°C° 0 mm 2 mps 764 mmHg 74%
    04:00 +21°C° 0 mm 3 mps 764 mmHg 69%
    05:00 +21°C° 0 mm 3 mps 765 mmHg 65%
    06:00 +22°C° 0 mm 4 mps 765 mmHg 60%
    07:00 +25°C° 0 mm 5 mps 765 mmHg 54%
    08:00 +26°C° 0 mm 5 mps 765 mmHg 49%
    09:00 +27°C° 0 mm 6 mps 765 mmHg 43%
    10:00 +28°C° 0 mm 6 mps 765 mmHg 41%
    11:00 +29°C° 0 mm 6 mps 765 mmHg 39%
    12:00 +29°C° 0 mm 7 mps 765 mmHg 37%
    13:00 +29°C° 0 mm 7 mps 765 mmHg 38%
    14:00 +29°C° 0 mm 7 mps 765 mmHg 38%
    15:00 +29°C° 0 mm 7 mps 765 mmHg 39%
    16:00 +27°C° 0 mm 6 mps 765 mmHg 43%
    17:00 +26°C° 0 mm 6 mps 765 mmHg 47%
    18:00 +24°C° 0 mm 6 mps 765 mmHg 52%
    19:00 +23°C° 0 mm 5 mps 766 mmHg 55%
    20:00 +23°C° 0 mm 5 mps 766 mmHg 58%
    21:00 +22°C° 0 mm 4 mps 767 mmHg 61%
    22:00 +22°C° 0 mm 4 mps 767 mmHg 61%
    23:00 +21°C° 0 mm 4 mps 767 mmHg 62%

    30 May, Wednesday

    Time Temperature Precipitation Wind Pressure Humidity
    00:00 +21°C° 0 mm 4 mps 767 mmHg 63%
    01:00 +21°C° 0 mm 4 mps 767 mmHg 63%
    02:00 +21°C° 0 mm 4 mps 767 mmHg 64%
    03:00 +20°C° 0 mm 5 mps 767 mmHg 64%
    04:00 +21°C° 0 mm 5 mps 767 mmHg 62%
    05:00 +21°C° 0 mm 5 mps 767 mmHg 61%
    06:00 +21°C° 0 mm 6 mps 767 mmHg 60%
    07:00 +22°C° 0 mm 5 mps 767 mmHg 55%
    08:00 +23°C° 0 mm 5 mps 767 mmHg 50%
    09:00 +26°C° 0 mm 5 mps 767 mmHg 45%
    10:00 +26°C° 0 mm 5 mps 767 mmHg 43%
    11:00 +27°C° 0 mm 6 mps 766 mmHg 41%
    12:00 +28°C° 0 mm 6 mps 766 mmHg 38%
    13:00 +28°C° 0 mm 6 mps 766 mmHg 38%
    14:00 +28°C° 0 mm 6 mps 766 mmHg 39%
    15:00 +28°C° 0 mm 5 mps 765 mmHg 39%
    16:00 +27°C° 0 mm 5 mps 765 mmHg 41%
    17:00 +26°C° 0 mm 5 mps 765 mmHg 44%
    18:00 +25°C° 0 mm 5 mps 765 mmHg 47%
    19:00 +23°C° 0 mm 4 mps 765 mmHg 50%
    20:00 +22°C° 0 mm 4 mps 765 mmHg 54%
    21:00 +21°C° 0 mm 3 mps 765 mmHg 57%
    22:00 +21°C° 0 mm 3 mps 764 mmHg 59%
    23:00 +20°C° 0 mm 2 mps 764 mmHg 62%
    Show more